[[{"header":{"parameterUnit":"m.s-1","parameterCategory":2,"la1":30.2991,"la2":30.254,"lo1":-89.0895,"lo2":-89.0444,"dy":0.0017,"dx":0.0017,"nx":28,"ny":28,"refTime":"2025-11-10T03:00:00:Z","depth":"0","parameterNumber":2,"parameterNumberName":"U-component_of_CURRENTS"},"data":[0,0,0,0,0,0,0,0,0,0,0,0,0,0,0,0,0,0,0,0,0,0,0,0,0,0,0,0,0,0,0,0,0,0,0,0,0,0,0,0,0,0,0,0,0,0,0,0,0,0,0,0,0,0,0,0,0,0,0.276,0.276,0,0.2769,0.2769,0.2769,0.275,0.2749,0.2749,0.2748,0.2725,0.2724,0.2724,0,0,0,0,0,0,0,0,0,0,0,0,0,0.273,0.273,0.276,0.276,0.2761,0.2769,0.2769,0.2769,0.275,0.2749,0.2749,0.2748,0.2725,0.2724,0.2724,0,0,0,0,0,0,0,0,0,0,0,0,0,0.2739,0.273,0.276,0.2754,0.2754,0.2769,0.2769,0.2768,0.275,0.2749,0.2749,0.2748,0.2725,0.2724,0.2724,0.2733,0,0,0.2723,0.2723,0,0,0,0,0,0,0,0,0.2738,0.274,0.2754,0.2754,0.2754,0.276,0.2749,0.2756,0.275,0.2749,0.2748,0.2748,0.2735,0.2734,0.2734,0.2732,0.2731,0.2723,0.2723,0.2722,0.2722,0,0,0,0,0,0,0,0.2738,0.2739,0.2761,0.2755,0.2755,0.2752,0.2752,0.2751,0.2743,0.2749,0.2748,0.2753,0.2735,0.2734,0.2733,0.2731,0.2723,0.2722,0.2722,0.2722,0.2757,0.2758,0,0,0,0,0,0,0.2742,0.2739,0.2761,0.2761,0.2747,0.2753,0.2754,0.2756,0.2743,0.2742,0.2754,0.2752,0.2735,0.2734,0.2732,0.276,0.2722,0.2722,0.2722,0.2756,0.2757,0.2759,0,0,0,0,0,0,0.2742,0.2744,0.276,0.2752,0.2754,0.2755,0.2758,0.2757,0.2761,0.2748,0.2745,0.2759,0.2735,0.2733,0.274,0.2758,0.2722,0.2721,0.2755,0.2756,0.2758,0.2803,0,0,0,0,0,0,0.2741,0.2744,0.2749,0.2753,0.2755,0.2774,0.2759,0.2758,0.2766,0.2764,0.2752,0.2749,0.2734,0.274,0.2739,0.2757,0.2721,0.2753,0.2755,0.2757,0.28,0.2806,0.2811,0,0,0,0,0,0.2739,0.2747,0.2749,0.2752,0.2761,0.2775,0.2776,0.2773,0.2767,0.2773,0.2767,0.2749,0.2754,0.2741,0.2739,0.2757,0.2752,0.2755,0.2757,0.2798,0.2805,0.2811,0,0,0,0,0,0,0.2735,0.2746,0.2748,0.2758,0.277,0.2773,0.2779,0.2779,0.278,0.2778,0.2762,0.2759,0.2774,0.2762,0.2748,0.2775,0.2751,0.2753,0.2782,0.2789,0.2795,0.2809,0.2721,0,0,0,0,0,0.2739,0.2746,0.2759,0.2767,0.2775,0.278,0.2785,0.2787,0.2789,0.2788,0.278,0.2777,0.2785,0.2783,0.2784,0.2796,0.2802,0.2808,0.2813,0.2818,0.283,0.2856,0.2866,0.2767,0.2767,0.2767,0,0,0.2738,0.2747,0.275,0.2767,0.2774,0.2792,0.2781,0.2795,0.281,0.2786,0.2799,0.2797,0.2794,0.2809,0.2814,0.2799,0.2851,0.2821,0.2825,0.2835,0.286,0.287,0.2878,0.2769,0.2769,0.2768,0,0,0.2744,0.2752,0.2761,0.2776,0.2795,0.2803,0.2811,0.2821,0.2825,0.2841,0.2834,0.2847,0.2844,0.2852,0.2855,0.2894,0.2883,0.2891,0.2926,0.2951,0.296,0.2967,0.2994,0.3004,0.2889,0.2889,0.2889,0,0.2746,0.2759,0.2767,0.2786,0.28,0.2811,0.283,0.2843,0.2853,0.2865,0.285,0.2875,0.2869,0.2903,0.2916,0.2908,0.2919,0.2898,0.2959,0.2966,0.2973,0.2999,0.3009,0.2892,0.2892,0.2891,0.2891,0,0.2761,0.2776,0.2785,0.2812,0.2829,0.2848,0.2871,0.2887,0.2893,0.2906,0.2938,0.2937,0.2952,0.2954,0.2946,0.2995,0.2987,0.2965,0.2941,0.2986,0.301,0.302,0.2895,0.2894,0.2894,0.2893,0,0,0.2753,0.2788,0.2791,0.2805,0.2845,0.2857,0.2895,0.2929,0.296,0.2969,0.3008,0.3023,0.3026,0.3032,0.3027,0.3049,0.3107,0.3029,0.3029,0.3056,0.3169,0.317,0.318,0.3092,0.3094,0.3096,0.3169,0,0.2764,0.2792,0.2813,0.2844,0.2861,0.2891,0.2926,0.2961,0.2992,0.3034,0.3049,0.3085,0.3055,0.3072,0.309,0.311,0.3133,0.3089,0.3122,0.3124,0.3118,0.3191,0.3192,0.3258,0.3178,0.3179,0.3181,0,0.2772,0.279,0.2817,0.2858,0.287,0.2893,0.2953,0.299,0.3059,0.309,0.3131,0.3146,0.3194,0.3157,0.321,0.3182,0.3183,0.3188,0.319,0.3184,0.3143,0.3199,0.3277,0.3295,0.3195,0.3194,0.3193,0,0.2749,0.2792,0.2808,0.2823,0.2876,0.2895,0.2929,0.3,0.3048,0.3135,0.3179,0.3228,0.3263,0.3275,0.3284,0.3254,0.3339,0.3295,0.3296,0.3295,0.33,0.3297,0.3399,0.3331,0.3331,0.3331,0.3331,0,0.2748,0.2761,0.2796,0.2805,0.2838,0.2881,0.2936,0.299,0.3082,0.3144,0.3201,0.3262,0.3293,0.3336,0.3327,0.3356,0.3373,0.3329,0.3325,0.3316,0.3314,0.333,0.3318,0.3334,0.3333,0.3332,0.3332,0,0.2718,0.2742,0.2763,0.2809,0.2825,0.2848,0.2934,0.2977,0.3075,0.3161,0.3194,0.3307,0.3378,0.34,0.3446,0.3418,0.3389,0.3436,0.3429,0.3422,0.3424,0.3414,0.3297,0.3183,0.346,0.3461,0.3461,0,0.2703,0.2709,0.2752,0.2761,0.2779,0.2824,0.2857,0.2963,0.302,0.318,0.3216,0.3332,0.3414,0.3505,0.3513,0.3535,0.3417,0.3507,0.3446,0.3457,0.3442,0.3246,0.3142,0.3473,0.3474,0.3474,0.3474,0,0.2672,0.2686,0.2699,0.2724,0.2747,0.2781,0.2839,0.2888,0.3013,0.3108,0.3236,0.3328,0.3463,0.3523,0.3569,0.3567,0.3418,0.3516,0.3537,0.3483,0.3267,0.3145,0.3391,0.3479,0.3478,0.3478,0.3478,0.3478,0.2641,0.264,0.2657,0.2676,0.2698,0.2717,0.2727,0.2814,0.291,0.3039,0.3179,0.3324,0.3519,0.3618,0.3571,0.3594,0.3443,0.3552,0.3547,0.335,0.3216,0.3473,0.3542,0.3542,0.3542,0.3542,0.3542,0,0.2591,0.2594,0.2607,0.2613,0.2603,0.2644,0.2692,0.2702,0.2778,0.2985,0.3109,0.3381,0.3515,0.362,0.3753,0.3686,0.3438,0.361,0.338,0.3275,0.3565,0.3548,0.361,0.361,0.361,0.361,0.361,0.361,0.2563,0.2545,0.255,0.2512,0.2514,0.2481,0.2489,0.2539,0.2671,0.2873,0.3061,0.323,0.3633,0.3934,0.3969,0.3839,0.3553,0.3423,0.3304,0.3631,0.3625,0.3619,0.3603,0.3676,0.3676,0.2901,0.2896,0.2893]},{"header":{"parameterUnit":"m.s-1","parameterCategory":2,"la1":30.2991,"la2":30.254,"lo1":-89.0895,"lo2":-89.0444,"dy":0.0017,"dx":0.0017,"nx":28,"ny":28,"refTime":"2025-11-10T03:00:00:Z","depth":"0","parameterNumber":3,"parameterNumberName":"V-component_of_CURRENTS"},"data":[0,0,0,0,0,0,0,0,0,0,0,0,0,0,0,0,0,0,0,0,0,0,0,0,0,0,0,0,0,0,0,0,0,0,0,0,0,0,0,0,0,0,0,0,0,0,0,0,0,0,0,0,0,0,0,0,0,0,0.0018,0.0018,0,-0.0025,-0.0026,-0.0026,-0.0063,-0.0063,-0.0064,-0.0064,-0.0124,-0.0126,-0.0127,0,0,0,0,0,0,0,0,0,0,0,0,0,0.0015,0.0016,0.0018,0.0018,0.0017,-0.0025,-0.0026,-0.0026,-0.0063,-0.0063,-0.0064,-0.0064,-0.0124,-0.0125,-0.0127,0,0,0,0,0,0,0,0,0,0,0,0,0,-0.0003,0.0016,0.0018,-0.0005,-0.0007,-0.0025,-0.0026,-0.0027,-0.0063,-0.0063,-0.0064,-0.0064,-0.0123,-0.0125,-0.0127,-0.0132,0,0,-0.0134,-0.0134,0,0,0,0,0,0,0,0,-0.0002,-0.0003,-0.0001,-0.0003,-0.0006,-0.0038,-0.0049,-0.0062,-0.0063,-0.0044,-0.0064,-0.0064,-0.0095,-0.01,-0.0109,-0.0135,-0.0138,-0.0134,-0.0135,-0.0136,-0.0136,0,0,0,0,0,0,0,-0.0,-0.0001,-0.0001,-0.0001,-0.0004,-0.0031,-0.0034,-0.0052,-0.0069,-0.0045,-0.0048,-0.005,-0.0097,-0.0107,-0.0111,-0.0139,-0.0134,-0.0136,-0.0137,-0.0138,-0.0171,-0.0171,0,0,0,0,0,0,0.0012,0.0,0.0001,-0.0002,-0.0003,-0.003,-0.0034,-0.0028,-0.0068,-0.0074,-0.0049,-0.0051,-0.0104,-0.0109,-0.0113,-0.0107,-0.0136,-0.0138,-0.0139,-0.0172,-0.0171,-0.0171,0,0,0,0,0,0,0.0012,0.0013,0.0002,-0.0001,-0.0004,-0.0029,-0.0024,-0.0029,-0.0036,-0.0071,-0.0077,-0.005,-0.0104,-0.011,-0.0122,-0.011,-0.0139,-0.0141,-0.0172,-0.0171,-0.0171,-0.0104,0,0,0,0,0,0,0.0012,0.0013,0.0019,0.0,-0.0003,0.0003,-0.0023,-0.003,-0.0036,-0.0039,-0.0073,-0.008,-0.0105,-0.0119,-0.0124,-0.0114,-0.0142,-0.0172,-0.0172,-0.0171,-0.0107,-0.0102,-0.0097,0,0,0,0,0,0.0013,0.003,0.002,0.002,0.0007,0.0004,-0.0,-0.0022,-0.0035,-0.0031,-0.0056,-0.0078,-0.0119,-0.012,-0.0127,-0.0116,-0.0173,-0.0172,-0.0171,-0.0109,-0.0103,-0.0097,0,0,0,0,0,0,0.0032,0.0027,0.0016,0.0031,0.0021,-0.0002,-0.0,-0.0015,-0.0032,-0.0037,-0.0072,-0.008,-0.0088,-0.0111,-0.0111,-0.0125,-0.015,-0.0151,-0.0101,-0.0095,-0.009,-0.007,-0.0144,0,0,0,0,0,0.004,0.0051,0.0038,0.0049,0.0047,0.0023,0.0018,0.0005,-0.0012,-0.0021,-0.0044,-0.0071,-0.009,-0.0099,-0.0121,-0.0125,-0.0154,-0.0124,-0.0119,-0.0114,-0.0103,-0.0139,-0.0136,-0.0168,-0.0168,-0.0168,0,0,0.005,0.0049,0.0053,0.0053,0.0041,0.0053,0.0019,0.0019,0.0026,-0.0024,-0.0023,-0.0055,-0.0088,-0.0095,-0.01,-0.0111,-0.0122,-0.0113,-0.0109,-0.01,-0.0138,-0.0135,-0.0132,-0.0168,-0.0168,-0.0168,0,0,0.0081,0.0074,0.0095,0.0093,0.0086,0.0075,0.0079,0.0061,0.005,0.0045,0.0011,-0.001,-0.0039,-0.0058,-0.0073,-0.0053,-0.0096,-0.0064,-0.0019,-0.0054,-0.0051,-0.0049,-0.0085,-0.0087,-0.0059,-0.0058,-0.0058,0,0.0091,0.0119,0.0099,0.012,0.0128,0.0091,0.0118,0.0103,0.0082,0.0081,0.0055,0.0011,-0.002,-0.0024,-0.002,-0.004,-0.0069,-0.0037,-0.0046,-0.0045,-0.0045,-0.0081,-0.0084,-0.0055,-0.0055,-0.0056,-0.0056,0,0.014,0.016,0.0172,0.0189,0.0193,0.0208,0.0192,0.0188,0.0166,0.015,0.0134,0.0084,0.0061,0.0043,0.0018,0.0012,-0.0013,-0.0038,-0.0058,-0.0037,-0.0078,-0.0082,-0.005,-0.0052,-0.0053,-0.0053,0,0,0.0171,0.0203,0.0207,0.0231,0.0234,0.0246,0.0256,0.0261,0.0277,0.0232,0.0243,0.0193,0.0159,0.0141,0.0098,0.0066,0.004,0.0024,0.002,-0.0005,-0.0039,-0.0066,-0.0073,0.0013,0.0012,0.0012,-0.0069,0,0.0216,0.0277,0.0277,0.0331,0.0363,0.0341,0.0357,0.0352,0.0338,0.0335,0.0271,0.0262,0.0199,0.0189,0.0146,0.007,0.0033,0.0065,-0.0061,-0.0064,-0.0086,-0.0078,-0.008,-0.0154,-0.0074,-0.0075,-0.0075,0,0.0268,0.0304,0.0369,0.0414,0.0425,0.0446,0.0473,0.0487,0.0468,0.0454,0.0423,0.037,0.0319,0.0259,0.0137,0.0159,0.0072,0.0002,-0.0003,-0.0052,-0.0099,-0.0163,-0.0165,-0.0368,-0.0082,-0.0081,-0.0081,0,0.0311,0.037,0.0428,0.0443,0.0482,0.0502,0.052,0.0522,0.0555,0.0534,0.0545,0.0462,0.0429,0.0307,0.0158,0.0149,0.0016,-0.0018,-0.0127,-0.013,-0.0167,-0.0173,-0.0373,-0.0103,-0.0102,-0.0102,-0.0102,0,0.0366,0.0411,0.0452,0.0484,0.0555,0.0558,0.0628,0.063,0.0651,0.0701,0.0612,0.0624,0.0439,0.0337,0.019,0.0021,0.0036,-0.0114,-0.015,-0.0145,-0.0148,-0.0355,-0.0489,-0.0105,-0.0105,-0.0104,-0.0103,0,0.0408,0.0432,0.0506,0.0558,0.058,0.0632,0.0711,0.0765,0.0765,0.0825,0.0822,0.0745,0.0611,0.0414,0.0216,0.0074,-0.0224,-0.0156,-0.0139,-0.0171,-0.0457,-0.0587,-0.0829,-0.0944,-0.0286,-0.0287,-0.0288,0,0.0436,0.0478,0.0566,0.0618,0.0646,0.0724,0.0785,0.0821,0.0892,0.0908,0.0947,0.0832,0.0786,0.0477,0.0189,-0.0079,-0.0278,-0.0258,-0.0277,-0.0473,-0.0645,-0.0727,-0.0812,-0.0306,-0.0307,-0.0308,-0.0309,0,0.0493,0.0521,0.0583,0.0694,0.077,0.0871,0.0961,0.1035,0.108,0.1129,0.1172,0.1133,0.0825,0.0565,0.0178,-0.003,-0.043,-0.0283,-0.0495,-0.0685,-0.078,-0.0905,-0.0258,-0.0316,-0.0316,-0.0315,-0.0315,-0.0314,0.0533,0.059,0.0674,0.0781,0.0876,0.1004,0.1104,0.1209,0.133,0.1429,0.1365,0.1374,0.0946,0.0422,0.009,-0.0498,-0.0511,-0.0649,-0.0791,-0.0854,-0.097,-0.0336,-0.0429,-0.0429,-0.0429,-0.0429,-0.0429,0,0.0585,0.0653,0.0757,0.0889,0.1006,0.1047,0.1216,0.1332,0.1492,0.1602,0.1651,0.146,0.0928,0.0366,-0.0422,-0.0875,-0.1062,-0.1149,-0.1278,-0.1341,-0.0779,-0.0783,-0.0946,-0.0946,-0.0945,-0.0945,-0.0945,-0.0945,0.0614,0.072,0.0779,0.0975,0.1072,0.1247,0.1354,0.1525,0.1664,0.1821,0.1861,0.1835,0.1393,-0.0063,-0.107,-0.1344,-0.1712,-0.1808,-0.198,-0.1607,-0.157,-0.1536,-0.1569,-0.1894,-0.1896,-0.2462,-0.2468,-0.2473]}],[{"header":{"parameterUnit":"m.s-1","parameterCategory":2,"la1":30.2991,"la2":30.254,"lo1":-89.0895,"lo2":-89.0444,"dy":0.0017,"dx":0.0017,"nx":28,"ny":28,"refTime":"2025-11-10T03:00:00:Z","depth":"2","parameterNumber":2,"parameterNumberName":"U-component_of_CURRENTS"},"data":[0,0,0,0,0,0,0,0,0,0,0,0,0,0,0,0,0,0,0,0,0,0,0,0,0,0,0,0,0,0,0,0,0,0,0,0,0,0,0,0,0,0,0,0,0,0,0,0,0,0,0,0,0,0,0,0,0,0,0.2696,0.2696,0,0.2704,0.2704,0.2704,0.2688,0.2687,0.2687,0.2687,0.2665,0.2665,0.2665,0,0,0,0,0,0,0,0,0,0,0,0,0,0.2666,0.2667,0.2696,0.2696,0.2696,0.2704,0.2704,0.2704,0.2688,0.2687,0.2687,0.2686,0.2665,0.2665,0.2665,0,0,0,0,0,0,0,0,0,0,0,0,0,0.2675,0.2667,0.2696,0.2691,0.2691,0.2704,0.2704,0.2704,0.2688,0.2687,0.2687,0.2686,0.2665,0.2665,0.2665,0.2672,0,0,0.2663,0.2663,0,0,0,0,0,0,0,0,0.2675,0.2676,0.2691,0.2691,0.2691,0.2696,0.2686,0.2692,0.2688,0.2686,0.2687,0.2686,0.2675,0.2674,0.2673,0.2671,0.267,0.2663,0.2663,0.2663,0.2663,0,0,0,0,0,0,0,0.2674,0.2675,0.2696,0.2692,0.2692,0.2689,0.2689,0.2687,0.2681,0.2686,0.2686,0.2691,0.2674,0.2674,0.2673,0.2669,0.2663,0.2663,0.2663,0.2663,0.2697,0.2698,0,0,0,0,0,0,0.2679,0.2675,0.2696,0.2697,0.2684,0.269,0.269,0.2693,0.2681,0.268,0.2691,0.269,0.2675,0.2673,0.2672,0.27,0.2663,0.2663,0.2662,0.2696,0.2697,0.2698,0,0,0,0,0,0,0.2678,0.268,0.2696,0.2688,0.269,0.2691,0.2694,0.2694,0.2699,0.2686,0.2683,0.2698,0.2674,0.2672,0.268,0.2698,0.2662,0.2662,0.2694,0.2696,0.2698,0.2743,0,0,0,0,0,0,0.2677,0.268,0.2685,0.2688,0.2691,0.271,0.2695,0.2694,0.2703,0.2702,0.2691,0.2688,0.2674,0.268,0.2679,0.2697,0.2662,0.2693,0.2695,0.2697,0.274,0.2746,0.2752,0,0,0,0,0,0.2676,0.2683,0.2685,0.2688,0.2698,0.2711,0.2712,0.2709,0.2704,0.271,0.2706,0.2689,0.2693,0.2681,0.2679,0.2697,0.2692,0.2695,0.2697,0.2738,0.2745,0.2751,0,0,0,0,0,0,0.2672,0.2683,0.2685,0.2695,0.2706,0.2709,0.2715,0.2716,0.2718,0.2717,0.2701,0.2698,0.2714,0.2702,0.2688,0.2715,0.2691,0.2693,0.2723,0.2729,0.2735,0.2749,0.2661,0,0,0,0,0,0.2676,0.2683,0.2695,0.2704,0.2712,0.2716,0.2722,0.2724,0.2726,0.2726,0.2719,0.2717,0.2724,0.2723,0.2724,0.2735,0.2741,0.2747,0.2753,0.2758,0.277,0.2795,0.2804,0.2707,0.2707,0.2707,0,0,0.2676,0.2685,0.2687,0.2704,0.2711,0.2728,0.2718,0.2733,0.2748,0.2724,0.2738,0.2737,0.2733,0.2748,0.2754,0.2739,0.2791,0.2761,0.2765,0.2774,0.2799,0.2808,0.2817,0.2709,0.2708,0.2708,0,0,0.2682,0.269,0.2699,0.2714,0.2733,0.274,0.2748,0.2759,0.2764,0.278,0.2773,0.2787,0.2784,0.2792,0.2794,0.2833,0.2822,0.283,0.2865,0.289,0.2898,0.2905,0.2932,0.2942,0.2829,0.2829,0.2829,0,0.2684,0.2697,0.2705,0.2724,0.2738,0.2749,0.2767,0.278,0.2791,0.2803,0.2789,0.2815,0.2809,0.2842,0.2855,0.2847,0.2858,0.2837,0.2897,0.2905,0.2911,0.2937,0.2947,0.2831,0.2831,0.2831,0.2831,0,0.2699,0.2714,0.2723,0.2749,0.2766,0.2785,0.2807,0.2824,0.2832,0.2844,0.2876,0.2875,0.2891,0.2893,0.2885,0.2933,0.2925,0.2904,0.288,0.2924,0.2948,0.2957,0.2835,0.2834,0.2833,0.2833,0,0,0.2692,0.2726,0.273,0.2743,0.2782,0.2794,0.2831,0.2865,0.2896,0.2906,0.2945,0.296,0.2964,0.2969,0.2965,0.2986,0.3044,0.2968,0.2968,0.2994,0.3105,0.3103,0.3113,0.303,0.3032,0.3033,0.3105,0,0.2703,0.273,0.2751,0.2781,0.2798,0.2827,0.2862,0.2896,0.2928,0.2969,0.2984,0.302,0.2992,0.301,0.3027,0.3047,0.3069,0.3027,0.3059,0.306,0.3053,0.3124,0.284,0.2881,0.3114,0.3115,0.3116,0,0.2711,0.2728,0.2755,0.2795,0.2806,0.283,0.2889,0.2925,0.2993,0.3025,0.3066,0.3081,0.3129,0.3093,0.3145,0.3119,0.3119,0.3124,0.3126,0.3117,0.3077,0.2873,0.2888,0.3131,0.313,0.3129,0.3128,0,0.269,0.2731,0.2747,0.2762,0.2813,0.2833,0.2867,0.2937,0.2983,0.3071,0.3114,0.3162,0.3197,0.321,0.3219,0.3189,0.3273,0.3228,0.3227,0.3226,0.2988,0.2965,0.3264,0.3264,0.3264,0.3264,0.3263,0,0.2688,0.2701,0.2736,0.2745,0.2778,0.282,0.2875,0.2929,0.3019,0.308,0.3137,0.3196,0.3228,0.327,0.3261,0.3288,0.3305,0.326,0.3255,0.2998,0.2976,0.3189,0.3179,0.3266,0.3266,0.3265,0.3265,0,0.266,0.2684,0.2704,0.2749,0.2766,0.2789,0.2874,0.2916,0.3014,0.3099,0.3131,0.3242,0.3311,0.3333,0.3377,0.3349,0.3369,0.3364,0.3073,0.3034,0.3294,0.3286,0.3383,0.3384,0.3385,0.3385,0.3386,0,0.2646,0.2652,0.2694,0.2703,0.2722,0.2767,0.2799,0.2904,0.296,0.3117,0.3152,0.3267,0.3337,0.3424,0.3371,0.3375,0.3413,0.3134,0.3035,0.3327,0.3311,0.3302,0.3293,0.2727,0.2722,0.2718,0.2715,0,0.2615,0.263,0.2642,0.2668,0.2691,0.2724,0.2781,0.2829,0.2952,0.3037,0.316,0.3241,0.3319,0.3211,0.323,0.3189,0.3116,0.3059,0.3423,0.2765,0.2721,0.2702,0.2712,0.2679,0.2683,0.2685,0.2687,0.2689,0.2586,0.2585,0.2602,0.2621,0.2643,0.2661,0.2669,0.2714,0.2793,0.2839,0.3025,0.3019,0.3048,0.294,0.2858,0.2775,0.2992,0.284,0.2846,0.2857,0.2793,0.2755,0.2707,0.271,0.2713,0.2716,0.2719,0,0.2519,0.254,0.2553,0.2558,0.2523,0.259,0.2635,0.2565,0.2572,0.2641,0.2695,0.2486,0.2458,0.2477,0.2296,0.2333,0.224,0.2246,0.2071,0.2112,0.2147,0.2039,0.1756,0.1753,0.175,0.1747,0,0,0.2486,0.2458,0.2463,0.2409,0.2429,0.2337,0.2342,0.2253,0.2235,0.2144,0.2118,0.2286,0.2413,0.2024,0.1999,0.1843,0.1952,0.1775,0.2553,0.2388,0.2419,0.2509,0.2393,0,0,0,0,0]},{"header":{"parameterUnit":"m.s-1","parameterCategory":2,"la1":30.2991,"la2":30.254,"lo1":-89.0895,"lo2":-89.0444,"dy":0.0017,"dx":0.0017,"nx":28,"ny":28,"refTime":"2025-11-10T03:00:00:Z","depth":"2","parameterNumber":3,"parameterNumberName":"V-component_of_CURRENTS"},"data":[0,0,0,0,0,0,0,0,0,0,0,0,0,0,0,0,0,0,0,0,0,0,0,0,0,0,0,0,0,0,0,0,0,0,0,0,0,0,0,0,0,0,0,0,0,0,0,0,0,0,0,0,0,0,0,0,0,0,0.0071,0.0071,0,0.0029,0.0028,0.0027,-0.001,-0.001,-0.001,-0.0011,-0.0071,-0.0072,-0.0073,0,0,0,0,0,0,0,0,0,0,0,0,0,0.0067,0.0068,0.0071,0.0071,0.007,0.0029,0.0028,0.0027,-0.001,-0.001,-0.001,-0.0011,-0.007,-0.0072,-0.0074,0,0,0,0,0,0,0,0,0,0,0,0,0,0.005,0.0068,0.0071,0.0048,0.0046,0.0029,0.0028,0.0027,-0.001,-0.001,-0.0011,-0.0011,-0.007,-0.0072,-0.0074,-0.0078,0,0,-0.008,-0.0081,0,0,0,0,0,0,0,0,0.0051,0.005,0.0052,0.0049,0.0047,0.0016,0.0005,-0.0008,-0.001,0.001,-0.0011,-0.0011,-0.0042,-0.0046,-0.0056,-0.008,-0.0083,-0.008,-0.0081,-0.0082,-0.0083,0,0,0,0,0,0,0,0.0052,0.0051,0.0053,0.0051,0.0048,0.0022,0.0019,0.0002,-0.0015,0.0008,0.0005,0.0003,-0.0044,-0.0053,-0.0057,-0.0084,-0.008,-0.0082,-0.0083,-0.0084,-0.0116,-0.0116,0,0,0,0,0,0,0.0064,0.0053,0.0054,0.0052,0.005,0.0023,0.002,0.0025,-0.0014,-0.002,0.0004,0.0002,-0.005,-0.0055,-0.0059,-0.0054,-0.0082,-0.0084,-0.0085,-0.0117,-0.0116,-0.0116,0,0,0,0,0,0,0.0065,0.0065,0.0056,0.0052,0.0049,0.0024,0.0029,0.0024,0.0017,-0.0017,-0.0024,0.0002,-0.005,-0.0057,-0.0069,-0.0057,-0.0085,-0.0087,-0.0117,-0.0117,-0.0116,-0.0051,0,0,0,0,0,0,0.0065,0.0066,0.0072,0.0053,0.005,0.0056,0.003,0.0024,0.0017,0.0014,-0.002,-0.0027,-0.0051,-0.0065,-0.007,-0.006,-0.0088,-0.0118,-0.0117,-0.0116,-0.0054,-0.0048,-0.0044,0,0,0,0,0,0.0065,0.0082,0.0072,0.0072,0.006,0.0057,0.0053,0.0031,0.0018,0.0022,-0.0003,-0.0025,-0.0065,-0.0066,-0.0073,-0.0063,-0.0118,-0.0117,-0.0116,-0.0056,-0.0049,-0.0044,0,0,0,0,0,0,0.0084,0.008,0.0068,0.0083,0.0074,0.0052,0.0053,0.0038,0.002,0.0015,-0.0019,-0.0026,-0.0035,-0.0057,-0.0058,-0.0072,-0.0096,-0.0096,-0.0048,-0.0042,-0.0037,-0.0018,-0.009,0,0,0,0,0,0.0092,0.0102,0.009,0.01,0.0099,0.0075,0.007,0.0057,0.004,0.0032,0.0008,-0.0018,-0.0037,-0.0045,-0.0068,-0.0071,-0.01,-0.007,-0.0065,-0.0061,-0.005,-0.0086,-0.0084,-0.0113,-0.0113,-0.0113,0,0,0.0101,0.01,0.0105,0.0105,0.0093,0.0105,0.0071,0.007,0.0078,0.0029,0.0029,-0.0002,-0.0035,-0.0041,-0.0047,-0.0057,-0.0069,-0.006,-0.0056,-0.0047,-0.0085,-0.0082,-0.008,-0.0113,-0.0113,-0.0113,0,0,0.0131,0.0125,0.0145,0.0144,0.0137,0.0126,0.013,0.0112,0.0101,0.0096,0.0062,0.0041,0.0013,-0.0006,-0.002,-0.0001,-0.0044,-0.0011,0.0033,-0.0003,-0.0,0.0001,-0.0034,-0.0036,-0.0006,-0.0006,-0.0006,0,0.0141,0.0169,0.015,0.017,0.0178,0.0142,0.0168,0.0153,0.0133,0.0131,0.0106,0.0062,0.0032,0.0027,0.0032,0.0012,-0.0017,0.0015,0.0004,0.0005,0.0006,-0.0031,-0.0034,-0.0003,-0.0003,-0.0004,-0.0004,0,0.0189,0.0209,0.0221,0.0238,0.0242,0.0257,0.0241,0.0237,0.0215,0.0199,0.0183,0.0133,0.0111,0.0093,0.0069,0.0062,0.0037,0.0013,-0.0007,0.0013,-0.0027,-0.0032,0.0002,0.0001,-0.0,-0.0001,0,0,0.0219,0.0251,0.0255,0.028,0.0282,0.0294,0.0304,0.031,0.0324,0.0279,0.029,0.0241,0.0207,0.0189,0.0147,0.0114,0.0088,0.0072,0.0069,0.0043,0.0008,-0.0019,-0.0027,0.006,0.006,0.006,-0.0023,0,0.0263,0.0324,0.0324,0.0378,0.041,0.0388,0.0404,0.0399,0.0384,0.0382,0.0317,0.0308,0.0246,0.0235,0.0192,0.0117,0.008,0.0112,-0.0013,-0.0017,-0.0038,-0.0032,-0.0005,-0.0076,-0.0027,-0.0028,-0.0029,0,0.0314,0.035,0.0415,0.046,0.0471,0.0491,0.0518,0.0532,0.0512,0.0498,0.0467,0.0414,0.0363,0.0303,0.0181,0.0204,0.0117,0.0048,0.0043,-0.0005,-0.0052,-0.009,-0.0087,-0.0036,-0.0036,-0.0035,-0.0035,0,0.0357,0.0415,0.0472,0.0488,0.0526,0.0546,0.0564,0.0566,0.0598,0.0576,0.0586,0.0504,0.047,0.0349,0.0201,0.0192,0.0058,0.0026,-0.0082,-0.0086,-0.0098,-0.0101,-0.0059,-0.0059,-0.0059,-0.0058,-0.0058,0,0.0411,0.0455,0.0497,0.0528,0.0598,0.0601,0.067,0.0671,0.0692,0.0741,0.0653,0.0663,0.048,0.0377,0.0232,0.0063,0.0078,-0.0071,-0.0106,-0.0075,-0.0076,-0.0069,-0.0069,-0.0062,-0.0061,-0.006,-0.006,0,0.0451,0.0475,0.0549,0.0601,0.0623,0.0674,0.0752,0.0805,0.0804,0.0863,0.086,0.0782,0.0647,0.0452,0.0254,0.0115,-0.005,-0.0115,-0.0067,-0.0096,-0.018,-0.0175,-0.0241,-0.0243,-0.0244,-0.0245,-0.0246,0,0.0479,0.0521,0.0607,0.0659,0.0687,0.0764,0.0824,0.086,0.093,0.0944,0.0983,0.0866,0.0818,0.0509,0.0232,-0.0033,-0.0068,-0.0186,-0.02,-0.0169,-0.0197,-0.0191,-0.0185,-0.0195,-0.0195,-0.0196,-0.0196,0,0.0535,0.0562,0.0624,0.0734,0.0809,0.091,0.0999,0.1072,0.1116,0.1161,0.1201,0.1159,0.0859,0.0599,0.0217,0.0034,-0.0145,-0.0203,-0.0182,-0.015,-0.0131,-0.0157,-0.0152,-0.0199,-0.0199,-0.0199,-0.0199,-0.0199,0.0574,0.0631,0.0714,0.082,0.0914,0.1041,0.1141,0.1236,0.1352,0.1424,0.1367,0.1308,0.0994,0.0516,0.0187,-0.0173,-0.0157,-0.0274,-0.027,-0.0267,-0.0244,-0.0228,-0.031,-0.0311,-0.0311,-0.0311,-0.0311,0,0.0631,0.0693,0.0796,0.0927,0.1047,0.1084,0.1251,0.1359,0.1504,0.1537,0.1561,0.1274,0.0954,0.0579,0.0058,-0.0243,-0.0262,-0.035,-0.0299,-0.0293,-0.0289,-0.0265,-0.0339,-0.034,-0.0341,-0.0341,0,0,0.0661,0.0768,0.0826,0.1021,0.1114,0.1294,0.1401,0.1545,0.1623,0.1682,0.1632,0.1518,0.1069,0.0691,0.0267,-0.0034,-0.0093,-0.0099,-0.0044,0.0072,0.008,-0.0215,-0.0169,0,0,0,0,0]}],[{"header":{"parameterUnit":"m.s-1","parameterCategory":2,"la1":30.2991,"la2":30.254,"lo1":-89.0895,"lo2":-89.0444,"dy":0.0017,"dx":0.0017,"nx":28,"ny":28,"refTime":"2025-11-10T03:00:00:Z","depth":"4","parameterNumber":2,"parameterNumberName":"U-component_of_CURRENTS"},"data":[0,0,0,0,0,0,0,0,0,0,0,0,0,0,0,0,0,0,0,0,0,0,0,0,0,0,0,0,0,0,0,0,0,0,0,0,0,0,0,0,0,0,0,0,0,0,0,0,0,0,0,0,0,0,0,0,0,0,0.1481,0.1482,0,0.1535,0.1536,0.1536,0.1581,0.1581,0.1582,0.1583,0.1651,0.1652,0.1653,0,0,0,0,0,0,0,0,0,0,0,0,0,0.1413,0.1414,0.1481,0.1482,0.1483,0.1535,0.1536,0.1536,0.1581,0.1581,0.1582,0.1583,0.165,0.1652,0.1653,0,0,0,0,0,0,0,0,0,0,0,0,0,0.1451,0.1414,0.1481,0.1512,0.1516,0.1535,0.1536,0.1536,0.158,0.1581,0.1582,0.1583,0.165,0.1651,0.1653,0.1645,0,0,0.1659,0.166,0,0,0,0,0,0,0,0,0.1448,0.1453,0.1507,0.151,0.1514,0.1554,0.1537,0.1574,0.158,0.1554,0.1583,0.1584,0.162,0.1624,0.163,0.1649,0.1652,0.1659,0.166,0.1661,0.1661,0,0,0,0,0,0,0,0.1446,0.1451,0.15,0.1508,0.1512,0.1523,0.1529,0.1544,0.158,0.1556,0.156,0.1569,0.1622,0.1628,0.1632,0.1653,0.1659,0.1661,0.1662,0.1662,0.178,0.1782,0,0,0,0,0,0,0.1442,0.1448,0.1499,0.1502,0.1485,0.1524,0.1531,0.1539,0.1579,0.1587,0.1568,0.1571,0.1624,0.1629,0.1634,0.1727,0.1661,0.1663,0.1664,0.1778,0.1781,0.1783,0,0,0,0,0,0,0.144,0.1446,0.1497,0.1478,0.1486,0.1524,0.1533,0.1539,0.1582,0.1588,0.1596,0.1609,0.1625,0.1632,0.1684,0.1726,0.1663,0.1665,0.1776,0.1779,0.1782,0.1849,0,0,0,0,0,0,0.1438,0.1445,0.1467,0.1478,0.1487,0.1532,0.1532,0.154,0.1585,0.159,0.1625,0.163,0.1626,0.1681,0.1685,0.1728,0.1666,0.1773,0.1777,0.1781,0.1844,0.1854,0.1862,0,0,0,0,0,0.1435,0.1454,0.1467,0.1475,0.1509,0.1533,0.1539,0.1567,0.1586,0.1609,0.164,0.1631,0.1709,0.1684,0.1689,0.1732,0.1771,0.1776,0.1781,0.184,0.1852,0.1862,0,0,0,0,0,0,0.1438,0.1461,0.1475,0.1502,0.1529,0.1542,0.1572,0.1589,0.163,0.1649,0.1653,0.1661,0.1724,0.172,0.1692,0.1779,0.174,0.1746,0.1784,0.1795,0.1804,0.1811,0.1668,0,0,0,0,0,0.1447,0.1471,0.1491,0.1519,0.1535,0.1562,0.1583,0.1603,0.1632,0.1653,0.1678,0.1709,0.1739,0.1762,0.1784,0.1828,0.1827,0.1861,0.187,0.1878,0.1888,0.1921,0.1933,0.1798,0.1798,0.1798,0,0,0.1457,0.1474,0.1489,0.1522,0.1548,0.1577,0.1578,0.1622,0.1657,0.1652,0.1723,0.1745,0.1759,0.1812,0.184,0.1819,0.1918,0.1883,0.189,0.1896,0.1927,0.194,0.1952,0.1801,0.18,0.18,0,0,0.1475,0.1505,0.1529,0.1555,0.1599,0.1615,0.1636,0.1674,0.1707,0.1764,0.1776,0.1827,0.187,0.1891,0.1903,0.1976,0.1965,0.1991,0.2042,0.2074,0.2085,0.2095,0.2114,0.2125,0.1994,0.1994,0.1994,0,0.149,0.1518,0.1541,0.1571,0.1601,0.1636,0.1671,0.1705,0.1759,0.1792,0.1801,0.1891,0.1906,0.1966,0.1998,0.1997,0.201,0.1997,0.2085,0.2095,0.2103,0.2121,0.2132,0.1998,0.1997,0.1997,0.1997,0,0.1514,0.1553,0.1573,0.1622,0.1656,0.1695,0.1738,0.179,0.1836,0.1868,0.1953,0.1981,0.2034,0.2051,0.205,0.2127,0.2114,0.2092,0.2054,0.2121,0.2135,0.2145,0.2003,0.2002,0.2001,0.2,0,0,0.1503,0.1575,0.1588,0.162,0.1689,0.1714,0.1786,0.1849,0.1909,0.1969,0.2042,0.2103,0.2132,0.215,0.2162,0.2194,0.227,0.2181,0.2181,0.2194,0.2342,0.2194,0.2191,0.2267,0.2269,0.227,0.2328,0,0.1521,0.1577,0.1614,0.1682,0.1714,0.1775,0.1836,0.1903,0.1971,0.2052,0.2098,0.2176,0.2164,0.2212,0.2243,0.2271,0.2301,0.2257,0.2281,0.2282,0.2136,0.2199,0.2278,0.2335,0.2337,0.2339,0.234,0,0.1527,0.1566,0.163,0.1712,0.1735,0.179,0.19,0.1961,0.2071,0.213,0.2211,0.2253,0.2333,0.2308,0.2382,0.2359,0.2364,0.2369,0.2371,0.2216,0.2152,0.2254,0.2359,0.2357,0.2356,0.2355,0.2353,0,0.1489,0.1575,0.1628,0.1657,0.1757,0.1814,0.188,0.1993,0.206,0.2197,0.2261,0.2348,0.241,0.2437,0.2455,0.2437,0.2515,0.2481,0.2348,0.2337,0.2423,0.2411,0.2527,0.2527,0.2526,0.2526,0.2526,0,0.1472,0.1519,0.1624,0.1652,0.1731,0.1812,0.1917,0.1999,0.2128,0.2202,0.2307,0.2368,0.245,0.2495,0.2493,0.245,0.2545,0.2369,0.2346,0.245,0.2441,0.243,0.2418,0.2528,0.2528,0.2527,0.2527,0,0.1417,0.1486,0.1552,0.167,0.1715,0.1777,0.1928,0.1992,0.2133,0.2236,0.2286,0.2414,0.2471,0.2516,0.2567,0.2484,0.2467,0.2425,0.2545,0.2526,0.226,0.2252,0.2284,0.228,0.2276,0.2272,0.227,0,0.1388,0.1419,0.1551,0.1593,0.1656,0.1763,0.1829,0.1982,0.2047,0.2233,0.2259,0.2381,0.2439,0.2388,0.2452,0.2437,0.24,0.2375,0.2306,0.2264,0.2239,0.2236,0.2233,0.2263,0.2262,0.2261,0.226,0,0.1329,0.1395,0.1446,0.1534,0.1613,0.1684,0.1793,0.1831,0.1992,0.2136,0.218,0.221,0.2267,0.2291,0.2298,0.228,0.2384,0.2333,0.234,0.2275,0.2239,0.2217,0.2218,0.2247,0.2249,0.225,0.2251,0,0.129,0.1309,0.1387,0.1451,0.1538,0.157,0.1646,0.1713,0.1795,0.1991,0.2,0.2121,0.2242,0.221,0.2217,0.2192,0.2151,0.2065,0.2085,0.2101,0.2013,0.1937,0.1842,0,0,0,0,0,0.1236,0.124,0.1293,0.1345,0.1424,0.1472,0.1597,0.1674,0.1831,0.1808,0.19,0.1941,0.1965,0.2032,0.1967,0.2135,0.2159,0.205,0.207,0.217,0.2186,0.2097,0,0,0,0,0,0,0.1196,0.1238,0.1252,0.1241,0.1253,0.132,0.1391,0.1498,0.1499,0.1665,0.1688,0.1813,0.1865,0.197,0.1923,0.1942,0.1912,0.2132,0.2127,0.2161,0.2176,0.2189,0.2103,0,0,0,0,0]},{"header":{"parameterUnit":"m.s-1","parameterCategory":2,"la1":30.2991,"la2":30.254,"lo1":-89.0895,"lo2":-89.0444,"dy":0.0017,"dx":0.0017,"nx":28,"ny":28,"refTime":"2025-11-10T03:00:00:Z","depth":"4","parameterNumber":3,"parameterNumberName":"V-component_of_CURRENTS"},"data":[0,0,0,0,0,0,0,0,0,0,0,0,0,0,0,0,0,0,0,0,0,0,0,0,0,0,0,0,0,0,0,0,0,0,0,0,0,0,0,0,0,0,0,0,0,0,0,0,0,0,0,0,0,0,0,0,0,0,0.0301,0.0301,0,0.0274,0.0274,0.0273,0.0257,0.0256,0.0256,0.0256,0.0216,0.0215,0.0214,0,0,0,0,0,0,0,0,0,0,0,0,0,0.0299,0.0299,0.0301,0.0301,0.0301,0.0274,0.0274,0.0273,0.0257,0.0256,0.0256,0.0256,0.0216,0.0215,0.0214,0,0,0,0,0,0,0,0,0,0,0,0,0,0.0288,0.0299,0.0301,0.029,0.0288,0.0274,0.0274,0.0273,0.0257,0.0256,0.0256,0.0256,0.0217,0.0215,0.0214,0.0205,0,0,0.0209,0.0208,0,0,0,0,0,0,0,0,0.0289,0.0288,0.0292,0.029,0.0289,0.0269,0.0258,0.025,0.0257,0.0268,0.0256,0.0256,0.0233,0.023,0.0224,0.0203,0.0201,0.0209,0.0208,0.0207,0.0207,0,0,0,0,0,0,0,0.0289,0.0289,0.029,0.0291,0.029,0.0272,0.0271,0.0256,0.025,0.0267,0.0266,0.0264,0.0232,0.0226,0.0223,0.02,0.0209,0.0207,0.0206,0.0206,0.0165,0.0165,0,0,0,0,0,0,0.0296,0.029,0.0291,0.0289,0.0289,0.0272,0.0271,0.0275,0.0251,0.0247,0.0264,0.0263,0.0229,0.0225,0.0222,0.0218,0.0207,0.0206,0.0205,0.0166,0.0165,0.0165,0,0,0,0,0,0,0.0296,0.0297,0.0292,0.0289,0.0287,0.0273,0.0277,0.0275,0.0272,0.0249,0.0245,0.0265,0.0228,0.0224,0.0213,0.0216,0.0205,0.0203,0.0166,0.0165,0.0165,0.0204,0,0,0,0,0,0,0.0297,0.0297,0.0303,0.029,0.0287,0.029,0.0277,0.0274,0.0271,0.027,0.0248,0.0244,0.0228,0.0216,0.0212,0.0213,0.0202,0.0166,0.0166,0.0165,0.0203,0.0206,0.0208,0,0,0,0,0,0.0297,0.0308,0.0304,0.0304,0.0296,0.029,0.0287,0.0276,0.0271,0.0273,0.0257,0.0245,0.0211,0.0215,0.021,0.0211,0.0166,0.0166,0.0165,0.0202,0.0205,0.0207,0,0,0,0,0,0,0.0309,0.0307,0.0302,0.0312,0.0304,0.0288,0.0289,0.028,0.0269,0.0269,0.0246,0.0241,0.0231,0.0215,0.0219,0.0197,0.0185,0.0184,0.0215,0.0217,0.0219,0.0232,0.0201,0,0,0,0,0,0.0316,0.0324,0.0314,0.0321,0.032,0.0305,0.0301,0.0294,0.0282,0.0277,0.0261,0.0242,0.0225,0.0217,0.02,0.0191,0.0166,0.0187,0.0189,0.0191,0.0197,0.0157,0.0157,0.0164,0.0164,0.0164,0,0,0.0322,0.0322,0.0327,0.0325,0.0318,0.0322,0.0303,0.0302,0.0304,0.0274,0.0273,0.025,0.0224,0.0214,0.0207,0.0202,0.0174,0.0191,0.0193,0.0198,0.0157,0.0156,0.0156,0.0164,0.0164,0.0164,0,0,0.0341,0.0341,0.0354,0.035,0.0345,0.0337,0.0339,0.0326,0.0319,0.0312,0.029,0.027,0.0248,0.0228,0.0216,0.0218,0.0187,0.0211,0.0234,0.0195,0.0194,0.0193,0.0158,0.0153,0.0212,0.0213,0.0213,0,0.0349,0.0366,0.0355,0.0365,0.037,0.0347,0.0362,0.035,0.0334,0.0331,0.0318,0.0277,0.0255,0.0238,0.0239,0.0224,0.0198,0.0229,0.0198,0.0197,0.0195,0.0159,0.0154,0.0214,0.0214,0.0214,0.0214,0,0.0375,0.039,0.0397,0.0406,0.0407,0.0416,0.0402,0.0397,0.0384,0.0371,0.0351,0.0313,0.0291,0.0275,0.0259,0.0237,0.0221,0.0206,0.0195,0.0197,0.0158,0.0152,0.0217,0.0216,0.0216,0.0215,0,0,0.0394,0.0414,0.0417,0.0434,0.0433,0.0439,0.044,0.0438,0.0446,0.041,0.041,0.0367,0.0344,0.0327,0.0295,0.0259,0.0221,0.0233,0.023,0.0204,0.0136,0.0127,0.0118,0.0201,0.02,0.0199,0.0114,0,0.042,0.0456,0.0456,0.0491,0.051,0.0495,0.0501,0.0493,0.048,0.0471,0.0418,0.0406,0.0364,0.0355,0.0311,0.0248,0.0207,0.0246,0.0134,0.013,0.0126,0.0112,0.0197,0.0109,0.0107,0.0106,0.0106,0,0.0448,0.0471,0.0512,0.0542,0.0549,0.0564,0.0579,0.0583,0.0558,0.0547,0.0515,0.0475,0.042,0.0383,0.0267,0.0294,0.0222,0.0164,0.0159,0.0134,0.0109,0.0105,0.0094,0.0095,0.0095,0.0096,0.0097,0,0.0474,0.0512,0.0551,0.0561,0.0585,0.0601,0.0614,0.0608,0.0626,0.06,0.0604,0.0525,0.0494,0.0388,0.0268,0.0268,0.0134,0.0117,0.0036,0.0034,0.0053,0.0055,0.0032,0.0032,0.0032,0.0032,0.0032,0,0.0502,0.0535,0.057,0.0591,0.0641,0.0642,0.0692,0.0687,0.0695,0.072,0.065,0.064,0.0494,0.04,0.0282,0.014,0.0141,0.0038,0.0011,0.007,0.0075,0.0048,0.0051,0.0029,0.003,0.003,0.0031,0,0.0523,0.0544,0.0596,0.0637,0.0658,0.0695,0.0758,0.079,0.0786,0.0814,0.0809,0.0727,0.0602,0.0446,0.0272,0.017,0.0029,-0.0022,0.0056,0.0035,-0.0049,-0.0043,-0.012,-0.0121,-0.0122,-0.0123,-0.0124,0,0.0537,0.0566,0.0638,0.0679,0.0704,0.0766,0.0811,0.0835,0.0874,0.0866,0.0878,0.0773,0.0695,0.0445,0.0275,0.004,0.0006,-0.0071,-0.0066,-0.0046,-0.0065,-0.0058,-0.0051,-0.0125,-0.0125,-0.0125,-0.0126,0,0.0565,0.0594,0.0638,0.0726,0.0787,0.0862,0.0926,0.0959,0.0982,0.0978,0.0934,0.08,0.0656,0.0453,0.0268,0.01,-0.0024,-0.0081,-0.008,-0.0076,-0.0053,-0.0069,-0.0061,-0.0129,-0.0128,-0.0128,-0.0128,0,0.0588,0.0627,0.0693,0.0769,0.0852,0.093,0.0963,0.1,0.1031,0.1011,0.0994,0.0832,0.0738,0.0483,0.0315,0.0145,0.0099,0.0041,0.0035,0.0036,0.0102,0.0156,0.012,0,0,0,0,0,0.0607,0.0656,0.0732,0.0819,0.0903,0.0958,0.1028,0.1052,0.1068,0.1045,0.1022,0.0885,0.0629,0.0521,0.035,0.029,0.0066,0.0082,-0.0005,-0.0146,-0.0143,-0.0093,0,0,0,0,0,0,0.0621,0.0694,0.0734,0.0847,0.0916,0.1016,0.1066,0.1078,0.1063,0.1046,0.0916,0.0842,0.0597,0.0733,0.0349,0.0296,0.0216,-0.0038,-0.0042,-0.0149,-0.0145,-0.0142,-0.009,0,0,0,0,0]}]]